MMS 2 (40483 NORAD) Tracking and Keplerian Element Data

This shows tracking and keplerian element data for the satellite.

Feedback or suggestion? Click here.




ElementValue
Catalog40483
NameMMS 2
Epoch Orbit1363
Epoch Day264
Epoch Year2022
RAAN97.718
Inclination30.8163
Eccentricity0.8789735
Argument of Perigee60.9082
Mean Anonmoly149.0479
Mean Motion0.28424103
Decay Rate-1.887E-05
L11 40483U 15011B 22264.00000000 -.00001887 00000+0 00000+0 0 9996
L22 40483 30.8163 97.7180 8789735 60.9082 149.0479 0.28424103 13637

Live tracking and technical data element details for MMS 2 (NORAD 40483). MMS 2 can be tracked NOW for your location showing map with azimuth and elevation plus other details from your city location.

Track the satellite on the map from your city or location and see movement details for azimuth, elevation, latitude, longitude, range, height, and movement on the map or in text.







IsCatalogInMostPopularTable: catalog: 40483, numindb: 612
Update: records affected: 1



GetName: 40483 MMS 2

Hit Count: updated at: Wed, 28 Sep 2022 23:35:45 GMT